Back to catalog

COSMOS 1778

GLONASS

AliveNavigationMEO
NORAD 16961·PAYLOAD·🇷🇺 Russia

Launched Sep 16, 1986 from Baikonur Cosmodrome

Loading…

Next Passes (next 24 hours)

TLE

FreshSource: Space-Track

Epoch: Sep 10, 2026, 18:37 UTC

1 16961U 86071A   26253.77586404  .00000012  00000-0  00000-0 0  9997
2 16961  64.9507  69.4115 0004191 215.2303 144.0195  2.13102761311195

Track COSMOS 1778 in real time with AllMySat

Download on the App Store